Location: Strawberry
(45.6646°N, 111.9596°W)
Time: 12:53:35
(UTC+00:00)

METEOR M2 - Visible Passes

Search period start: 08 December 2022 00:00
Search period end: 18 December 2022 00:00
Orbit: 819 x 827 km, 98.4° (Epoch: 08 December)

Date Brightness Start Highest point End Pass type
(mag) Time Alt. Az. Time Alt. Az. Time Alt. Az.
08 Dec ? 01:43:15 10° S 01:48:24 46° W 01:53:35 10° NNW visible
08 Dec ? 13:58:11 10° NNE 14:03:32 63° ESE 14:08:49 10° S visible
09 Dec ? 01:23:01 10° S 01:28:22 69° WSW 01:33:45 10° NNW visible
09 Dec ? 13:38:23 10° NNE 13:43:29 42° E 13:48:32 10° SSE visible
10 Dec ? 01:03:01 10° SSE 01:08:24 83° ENE 01:13:49 10° NNW visible
10 Dec ? 02:46:25 10° WSW 02:49:14 14° W 02:52:04 10° NW visible
10 Dec ? 13:18:46 10° NE 13:23:23 29° E 13:27:59 10° SSE visible
11 Dec ? 00:43:15 10° SSE 00:48:30 57° ENE 00:53:46 10° N visible
11 Dec ? 02:25:00 10° SW 02:29:01 21° W 02:33:05 10° NW visible
11 Dec ? 12:59:22 10° NE 13:03:13 20° E 13:07:03 10° SE visible
12 Dec ? 00:23:41 10° SE 00:28:39 39° ENE 00:33:37 10° N visible
12 Dec ? 02:04:09 10° SSW 02:08:53 31° W 02:13:38 10° NNW visible
12 Dec ? 12:40:32 10° ENE 12:43:00 13° E 12:45:27 10° ESE visible
12 Dec ? 14:18:30 10° NNE 14:23:53 88° WNW 14:29:14 10° SSW visible
13 Dec ? 01:43:39 10° S 01:48:47 45° W 01:53:58 10° NNW visible
13 Dec ? 13:58:34 10° NNE 14:03:55 64° ESE 14:09:12 10° S visible
14 Dec ? 01:23:25 10° S 01:28:46 67° WSW 01:34:08 10° NNW visible
14 Dec ? 13:38:46 10° NNE 13:43:52 43° E 13:48:56 10° S visible
15 Dec ? 01:03:25 10° SSE 01:08:47 84° ENE 01:14:12 10° NNW visible
15 Dec ? 02:46:55 10° WSW 02:49:38 14° W 02:52:22 10° WNW visible
15 Dec ? 13:19:06 10° NE 13:23:47 29° E 13:28:24 10° SSE visible
16 Dec ? 00:43:37 10° SSE 00:48:52 58° ENE 00:54:09 10° N visible
16 Dec ? 02:25:27 10° SW 02:29:26 21° W 02:33:25 10° NW visible
16 Dec ? 12:59:43 10° NE 13:03:37 20° E 13:07:30 10° SE visible
17 Dec ? 00:24:03 10° SE 00:29:01 40° ENE 00:34:01 10° N visible
17 Dec ? 02:04:35 10° SSW 02:09:16 30° W 02:13:59 10° NNW visible
17 Dec ? 12:40:50 10° ENE 12:43:23 13° E 12:45:57 10° ESE visible
17 Dec ? 14:18:52 10° NNE 14:24:16 86° WNW 14:29:37 10° SSW visible
